Wetbulb
54.76 56.55 60.35 61.36 66.90 70.97 70.46 70.27 70.08 70.80 71.67 71.13 70.60 70.44 69.72 70.69 71.02 71.07 71.64 71.86 72.16 72.11 71.35 70.82 69.98 70.49 68.03 67.72 68.19 67.53 67.11 66.62 67.42 65.49 64.88 65.70 66.64 66.69 66.90 67.32 67.28 66.77 67.03
54.43 55.40 57.07 61.52 65.84 70.32 71.03 70.08 70.41 70.38 71.18 71.17 71.31 71.13 70.54 70.43 70.75 71.26 71.20 71.70 72.21 71.87 71.54 70.74 70.18 69.71 68.38 68.12 68.14 67.59 65.81 65.95 66.86 64.39 63.32 60.86 63.08 65.74 66.46 65.99 65.50 63.53 61.88
53.44 56.01 57.13 60.87 64.77 70.41 70.39 68.86 70.38 70.43 70.89 71.14 71.39 70.88 70.66 70.49 69.99 70.31 70.37 71.26 71.67 71.66 71.18 71.32 70.54 69.82 69.21 67.87 67.91 67.89 66.52 64.79 65.90 66.47 63.63 59.84 58.21 61.69 62.93 61.38 60.85 57.59 56.21
54.53 54.79 56.45 58.20 63.24 66.24 68.94 71.02 69.61 70.79 70.62 70.79 70.02 69.36 68.65 67.78 69.21 69.70 70.55 70.72 71.20 70.96 71.13 70.92 71.10 70.07 69.37 68.25 68.22 68.40 67.35 66.32 64.74 65.12 66.63 64.93 58.96 57.69 51.55 55.96 57.02 56.35 56.55
53.78 54.56 55.59 58.07 61.81 63.12 63.85 67.20 68.58 69.56 71.30 70.42 70.42 69.57 69.25 69.54 70.37 70.85 70.58 70.64 70.92 70.79 70.84 70.86 70.85 69.97 69.85 68.86 68.59 67.69 67.82 67.49 65.93 64.74 63.38 63.41 60.75 59.50 56.94 50.94 51.90 55.32 55.88
54.19 55.20 56.25 57.85 58.94 61.72 63.25 63.83 64.11 64.19 65.33 67.81 71.86 71.16 70.90 70.45 69.98 70.47 70.50 70.67 70.95 70.77 70.85 71.03 70.75 70.64 69.77 69.15 68.66 68.42 67.68 67.17 66.77 65.81 64.12 62.99 60.99 58.90 56.25 55.71 54.19 51.41 53.40
54.22 54.54 55.70 56.51 57.77 58.47 59.50 63.47 63.57 62.69 63.58 63.47 64.38 71.73 71.06 70.67 69.77 69.33 69.58 70.33 70.54 70.61 70.30 70.44 70.22 70.22 69.76 69.72 69.20 68.78 67.75 67.66 66.93 66.33 64.50 64.55 63.46 61.24 59.24 57.21 56.39 53.94 52.63
55.52 54.63 55.36 56.64 57.06 58.74 59.37 62.12 60.99 62.01 63.50 64.52 63.73 63.95 69.93 70.83 70.33 69.68 69.23 68.58 70.44 70.87 71.17 70.73 70.45 70.39 70.12 69.56 69.42 68.56 68.42 67.97 67.36 66.99 65.61 64.03 61.65 59.06 58.47 54.69 52.25 49.65 51.28
54.40 54.46 55.55 55.61 56.59 57.96 58.44 60.16 59.70 60.04 61.42 62.55 62.36 63.79 63.79 66.89 69.22 69.47 70.36 69.35 70.36 70.02 69.92 70.39 70.10 69.93 69.73 69.42 69.08 68.72 67.80 67.71 67.49 67.22 66.52 61.79 55.36 55.83 56.10 54.45 53.16 50.48 45.95
53.14 54.30 54.13 54.48 54.51 55.73 58.06 59.84 61.01 60.63 60.57 60.68 62.09 65.68 65.10 64.48 67.65 69.12 68.49 68.54 68.65 70.08 69.83 69.85 69.70 69.46 69.16 69.11 68.89 68.19 68.21 67.66 67.49 66.42 59.96 57.70 56.31 55.25 53.34 51.54 50.19 50.38 48.21
51.52 52.41 52.67 53.70 54.28 54.80 55.22 58.99 60.23 61.27 62.49 63.73 62.63 62.26 63.69 68.65 69.07 68.32 68.34 68.82 68.34 68.47 68.82 69.16 68.72 69.01 68.57 68.75 68.26 68.13 67.79 67.45 64.72 60.27 58.05 55.93 53.58 51.66 51.94 50.56 51.24 49.50 48.78
49.79 50.88 52.17 52.95 53.19 53.33 53.58 54.42 57.65 59.04 60.05 61.44 63.33 65.11 65.34 64.67 65.32 68.12 68.60 69.14 68.28 68.80 68.69 67.97 67.43 67.03 67.65 67.90 67.61 63.74 63.79 61.73 58.95 57.94 54.82 53.39 51.83 49.72 49.40 48.82 49.15 48.38 47.16
48.12 48.54 49.68 49.74 50.77 51.08 51.95 52.21 54.57 56.35 58.03 58.61 59.48 61.98 65.27 64.84 64.22 64.31 66.50 68.28 68.37 68.20 68.19 67.16 66.80 66.05 65.80 65.26 65.32 62.77 61.07 58.69 56.25 55.83 54.08 51.47 50.95 48.74 48.43 47.54 47.26 48.10 47.52
47.25 47.68 48.29 48.58 49.25 49.97 51.03 51.35 52.29 54.83 55.44 55.89 57.04 58.14 61.60 62.03 63.21 64.77 65.47 66.63 67.75 67.07 66.93 66.75 66.17 65.35 64.27 62.56 61.71 59.05 58.14 55.69 54.51 53.84 53.28 51.29 49.99 48.38 48.03 47.50 47.28 46.55 44.90
45.21 46.51 46.94 47.07 47.70 49.09 49.66 50.38 51.18 52.39 54.21 53.83 55.13 56.21 57.71 60.73 60.92 61.28 62.86 63.86 64.49 64.21 64.98 63.60 63.01 61.90 61.00 58.78 57.29 56.87 55.34 53.17 51.48 52.17 51.37 51.02 49.20 47.01 46.92 47.70 46.56 45.53 44.23
44.13 45.30 46.59 46.89 47.00 47.53 47.87 49.24 50.25 51.17 53.02 51.70 53.52 54.62 55.89 56.82 58.23 57.04 56.69 57.03 61.07 61.19 61.11 60.40 59.46 58.12 56.79 46.32 46.86 51.59 50.96 49.74 48.66 47.54 46.92 44.92 42.88 41.05 38.80 38.21 38.70 43.54 44.75
43.13 44.04 44.92 45.71 47.00 47.37 48.51 48.82 49.04 49.86 50.20 50.96 51.96 53.46 54.73 54.58 55.65 54.86 53.64 53.06 52.67 52.56 55.81 56.67 56.23 56.17 53.07 43.96 43.83 44.00 49.68 48.13 48.07 47.04 44.53 43.35 41.98 41.07 39.30 36.33 35.77 35.44 35.41
43.75 45.01 45.69 46.17 47.22 48.10 48.18 48.41 48.38 48.48 48.61 49.20 49.77 51.76 52.12 52.07 40.15 50.45 48.17 43.94 48.93 48.94 49.25 47.84 48.73 48.96 46.27 42.05 42.46 42.37 47.67 46.67 46.26 44.79 44.09 43.29 41.86 41.13 39.94 39.95 39.60 37.97 36.97
45.33 46.04 46.56 46.77 47.32 47.41 47.99 47.64 47.30 47.63 47.65 48.04 49.23 50.02 51.49 50.06 46.12 37.62 37.07 36.17 36.17 36.71 37.43 44.56 43.17 41.52 41.19 40.63 41.14 43.18 43.78 39.94 38.11 43.00 43.31 41.66 41.37 38.45 40.08 39.53 38.02 34.75 32.66
46.22 45.84 46.64 46.85 46.55 47.02 48.12 47.13 46.57 46.80 46.74 47.88 48.69 50.11 51.00 50.17 48.48 45.31 36.88 36.53 43.37 36.53 37.80 36.53 39.25 39.23 38.87 39.31 40.20 42.34 41.52 40.64 39.74 40.20 41.08 38.57 39.21 37.42 39.13 38.91 35.66 32.53 31.62
45.89 47.16 46.76 46.02 46.60 47.48 47.34 46.18 46.42 46.17 47.97 49.10 49.60 49.89 50.48 49.76 49.67 47.57 43.51 42.97 41.88 39.38 38.87 37.22 38.49 39.31 40.91 39.91 39.94 41.77 43.07 41.32 39.99 39.95 38.01 36.96 35.86 35.83 37.42 37.61 34.06 32.99 32.84
45.05 46.04 45.78 45.99 47.21 47.91 47.43 46.11 45.76 47.11 48.25 48.55 49.25 49.15 49.94 49.38 48.78 44.78 41.21 39.77 39.58 38.31 37.35 36.81 36.30 36.86 39.79 39.97 40.14 41.53 41.35 40.93 39.29 37.67 35.84 34.68 34.84 35.44 35.07 33.97 33.73 33.17 32.86
44.98 46.08 45.65 45.83 46.94 47.32 47.66 46.37 46.85 47.97 47.54 46.84 47.18 48.35 48.16 47.94 44.93 41.57 36.71 36.88 38.51 38.13 37.01 36.60 36.28 36.15 37.24 39.46 40.33 39.87 38.63 37.05 37.48 35.61 34.18 34.16 33.95 33.91 32.00 32.45 32.70 32.88 33.28
44.16 45.31 45.49 45.30 45.13 47.01 47.15 47.44 47.59 48.12 47.37 46.01 46.00 46.19 39.43 41.97 39.79 38.87 37.24 37.95 37.58 37.22 36.83 36.63 35.74 35.41 36.12 38.28 38.57 37.87 37.56 34.41 34.32 33.11 32.85 32.09 32.16 32.42 31.45 31.09 31.74 33.60 33.39
42.96 43.52 43.50 44.13 45.43 46.94 47.09 47.73 47.42 47.79 47.09 46.65 44.58 43.27 43.09 42.21 37.78 38.33 38.46 37.75 38.54 39.48 38.05 38.05 36.98 34.87 34.35 35.38 37.57 37.21 34.85 34.53 33.30 32.44 32.08 32.02 30.96 30.36 31.21 32.35 32.27 32.41 32.60
40.95 40.80 41.72 43.03 44.58 45.95 46.62 47.40 48.08 48.39 46.76 43.17 42.17 42.97 41.04 40.88 39.40 37.60 35.26 36.15 36.88 36.43 37.15 37.06 37.10 35.58 35.81 35.82 36.35 35.85 35.24 33.94 32.44 32.08 31.36 30.87 30.83 31.47 31.70 31.62 31.49 32.39 32.44
MSLP
997.09 997.23 997.42 997.89 998.46 999.07 999.96 1001.29 1002.71 1003.83 1005.37 1006.17 1006.61 1007.13 1007.40 1007.85 1008.27 1008.68 1008.78 1009.36 1010.06 1010.77 1011.40 1012.08 1012.51 1012.67 1013.03 1013.53 1014.05 1014.56 1014.99 1015.23 1015.49 1016.06 1016.36 1016.51 1016.62 1016.79 1016.96 1016.94 1016.82 1016.96 1017.20
996.55 996.63 996.95 997.32 997.87 998.57 999.38 1000.67 1001.88 1003.00 1004.16 1005.40 1005.80 1006.24 1006.84 1007.24 1007.68 1008.08 1008.24 1008.47 1009.17 1009.93 1010.62 1011.29 1011.66 1012.12 1012.55 1012.96 1013.31 1013.77 1014.41 1014.81 1014.97 1015.72 1016.44 1016.59 1016.65 1016.55 1016.47 1016.48 1016.56 1016.82 1016.94
996.50 996.22 996.37 996.71 997.42 998.21 999.40 1000.33 1001.24 1001.95 1002.99 1004.25 1005.34 1005.87 1006.44 1006.89 1007.21 1007.27 1007.60 1007.89 1008.39 1009.08 1009.67 1010.42 1010.95 1011.25 1011.70 1012.05 1012.47 1012.90 1013.54 1014.13 1014.49 1014.83 1015.54 1015.98 1015.94 1015.96 1016.00 1016.28 1016.47 1016.69 1017.02
996.43 996.53 996.54 996.78 997.39 998.06 998.89 1000.13 1000.71 1001.48 1002.17 1003.12 1004.16 1004.77 1005.10 1005.45 1005.61 1006.16 1006.69 1007.23 1007.78 1008.41 1008.97 1009.71 1010.22 1010.50 1010.80 1011.18 1011.57 1012.17 1012.63 1013.31 1013.85 1014.42 1014.56 1014.90 1015.43 1015.87 1016.66 1016.58 1016.62 1016.72 1017.06
996.70 996.83 996.97 996.81 997.33 998.12 998.76 999.58 1000.36 1001.32 1001.90 1002.25 1002.90 1003.77 1004.30 1004.67 1004.80 1005.20 1005.88 1006.56 1007.09 1007.62 1008.22 1008.88 1009.39 1009.78 1009.91 1010.25 1010.64 1011.21 1011.67 1012.09 1012.82 1013.30 1014.02 1014.66 1015.05 1015.44 1015.71 1016.42 1016.76 1016.86 1017.12
996.37 996.82 996.86 997.03 997.37 997.97 998.88 999.25 999.71 1000.69 1001.58 1002.10 1002.42 1002.61 1003.18 1003.84 1004.11 1004.36 1004.90 1005.47 1005.92 1006.62 1007.20 1007.71 1008.23 1008.74 1009.23 1009.32 1009.68 1010.14 1010.68 1011.12 1011.77 1012.51 1013.12 1013.48 1014.31 1014.72 1015.26 1015.67 1016.17 1016.64 1016.99
995.65 996.28 996.86 997.29 997.81 998.37 999.05 999.64 999.96 1000.07 1000.33 1000.80 1001.47 1002.10 1002.53 1003.08 1003.44 1003.72 1004.00 1004.42 1004.86 1005.44 1005.94 1006.47 1007.10 1007.59 1008.03 1008.55 1009.05 1009.43 1009.84 1010.29 1010.86 1011.36 1012.06 1012.58 1013.04 1013.60 1014.34 1015.05 1015.60 1016.26 1016.48
996.53 997.01 997.67 998.30 998.85 999.52 999.72 999.95 1000.16 1000.02 1000.17 1000.73 1001.08 1001.46 1001.94 1002.36 1002.73 1003.13 1003.43 1003.68 1003.81 1004.08 1004.73 1005.55 1006.18 1006.77 1007.36 1007.87 1008.27 1008.65 1008.95 1009.42 1010.12 1010.69 1011.21 1011.71 1012.36 1012.96 1013.75 1014.43 1015.00 1015.97 1016.21
997.76 998.51 999.23 1000.04 1000.25 1000.51 1000.83 1000.96 1001.11 1000.93 1000.87 1000.85 1000.99 1000.98 1001.26 1001.67 1002.05 1002.47 1002.74 1003.05 1003.19 1003.59 1004.16 1004.76 1005.34 1005.88 1006.49 1007.03 1007.51 1007.88 1008.35 1008.83 1009.29 1009.84 1010.37 1010.92 1011.84 1012.37 1012.99 1013.43 1014.27 1015.07 1016.19
999.31 999.93 1000.42 1000.97 1001.38 1001.70 1001.71 1001.67 1001.73 1001.57 1001.26 1001.06 1001.08 1000.92 1000.71 1001.11 1001.39 1001.78 1002.22 1002.48 1002.78 1003.07 1003.48 1004.08 1004.57 1005.22 1005.76 1006.34 1006.76 1007.12 1007.67 1008.21 1008.64 1009.25 1010.19 1010.83 1011.66 1012.44 1013.08 1013.60 1013.77 1014.38 1015.20
1000.48 1000.84 1001.38 1001.65 1002.00 1002.39 1002.53 1002.65 1002.77 1002.50 1002.06 1001.61 1001.25 1001.19 1001.11 1000.96 1001.01 1001.38 1001.78 1002.00 1002.22 1002.50 1002.87 1003.34 1003.92 1004.53 1005.14 1005.68 1006.07 1006.41 1006.90 1007.59 1008.43 1009.28 1009.83 1010.68 1011.61 1012.56 1013.19 1013.56 1013.80 1014.36 1014.92
1001.56 1001.57 1001.80 1002.10 1002.57 1003.02 1003.38 1003.53 1003.38 1003.12 1002.82 1002.45 1002.01 1001.54 1001.22 1001.31 1001.17 1001.26 1001.29 1001.55 1001.89 1002.05 1002.40 1002.91 1003.46 1004.00 1004.48 1005.03 1005.38 1005.96 1006.59 1007.19 1008.24 1009.01 1009.92 1010.29 1010.67 1012.33 1013.24 1013.60 1013.94 1014.38 1015.11
1002.48 1002.21 1002.28 1002.54 1002.98 1003.45 1003.60 1003.74 1003.54 1003.38 1003.24 1002.98 1002.63 1002.18 1001.77 1001.52 1001.53 1001.54 1001.33 1001.13 1001.39 1001.72 1002.14 1002.67 1003.25 1003.72 1004.12 1004.72 1005.11 1005.60 1006.26 1007.18 1007.72 1008.56 1009.55 1010.15 1011.22 1012.35 1012.72 1013.22 1013.88 1014.57 1014.97
1002.99 1003.02 1002.93 1003.04 1003.17 1003.41 1003.43 1003.61 1003.72 1003.59 1003.53 1003.34 1003.08 1002.75 1002.39 1002.27 1002.35 1002.18 1001.42 1001.21 1001.11 1001.53 1001.95 1002.34 1002.87 1003.34 1003.90 1004.45 1005.13 1005.66 1006.25 1007.07 1007.99 1008.66 1009.56 1010.26 1010.64 1011.12 1012.58 1013.10 1013.84 1014.50 1015.27
1002.97 1003.01 1003.41 1003.40 1003.38 1003.24 1003.16 1003.31 1003.52 1003.70 1003.64 1003.49 1003.28 1003.15 1002.94 1002.76 1002.72 1002.74 1002.55 1002.08 1001.86 1001.65 1001.74 1002.17 1002.60 1003.07 1003.65 1004.28 1005.11 1005.70 1006.26 1007.15 1008.09 1009.06 1009.87 1010.62 1010.99 1011.09 1011.93 1012.67 1013.64 1014.61 1015.28
1002.81 1002.84 1003.11 1003.07 1002.97 1003.09 1003.36 1003.53 1003.45 1003.54 1003.44 1003.38 1003.27 1003.07 1002.96 1003.05 1003.08 1003.29 1003.30 1003.06 1002.71 1002.42 1002.28 1002.50 1002.71 1003.17 1003.55 1003.99 1004.60 1005.37 1006.48 1007.13 1007.90 1009.09 1010.15 1011.03 1011.30 1011.68 1012.15 1012.81 1013.44 1014.17 1014.96
1003.02 1003.07 1003.02 1003.05 1002.99 1003.18 1003.35 1003.39 1003.45 1003.38 1003.33 1003.19 1003.07 1002.86 1002.72 1002.79 1003.00 1003.24 1003.48 1003.54 1003.38 1003.21 1002.98 1002.81 1002.93 1003.22 1003.58 1004.16 1004.54 1005.16 1006.08 1006.96 1007.72 1008.74 1009.87 1010.82 1011.66 1011.89 1012.68 1013.43 1013.93 1014.72 1015.58
1003.92 1003.72 1003.52 1003.12 1003.04 1003.04 1003.26 1003.48 1003.47 1003.35 1003.23 1003.02 1002.87 1002.62 1002.50 1002.57 1002.91 1003.26 1003.47 1003.70 1003.73 1003.66 1003.60 1003.55 1003.59 1003.46 1003.70 1004.12 1004.55 1005.09 1005.81 1006.79 1007.63 1008.53 1009.61 1010.21 1011.32 1011.82 1012.48 1013.34 1014.28 1015.28 1016.08
1004.79 1004.53 1004.21 1003.89 1003.53 1003.26 1003.43 1003.52 1003.48 1003.27 1002.98 1002.65 1002.48 1002.45 1002.18 1002.35 1002.97 1003.39 1003.54 1003.78 1004.04 1003.98 1003.88 1003.92 1003.99 1004.23 1004.48 1004.59 1004.82 1005.42 1006.05 1006.98 1007.88 1008.58 1009.45 1010.09 1010.62 1011.62 1012.46 1013.38 1014.29 1015.87 1016.81
1004.81 1004.42 1004.22 1003.91 1003.59 1003.39 1003.26 1003.17 1003.01 1002.95 1002.67 1002.36 1002.15 1002.13 1002.09 1002.16 1002.48 1003.16 1003.63 1003.92 1004.13 1004.09 1004.15 1004.10 1004.20 1004.35 1004.71 1005.03 1005.25 1005.55 1006.36 1007.37 1008.24 1009.13 1009.76 1010.09 1010.73 1011.52 1012.20 1013.40 1014.42 1016.04 1016.89
1004.23 1003.82 1003.33 1002.94 1002.71 1002.64 1002.59 1002.39 1002.18 1002.10 1002.03 1001.97 1001.71 1001.64 1001.66 1001.71 1002.06 1002.84 1003.48 1003.79 1004.15 1004.35 1004.32 1004.39 1004.47 1004.60 1004.63 1005.22 1005.58 1005.87 1006.16 1006.99 1008.28 1009.04 1009.90 1010.52 1011.06 1011.71 1012.48 1013.53 1014.18 1015.73 1016.53
1003.36 1003.04 1002.53 1002.00 1001.71 1001.57 1001.53 1001.30 1001.28 1000.87 1001.37 1001.30 1001.18 1001.06 1001.15 1001.39 1001.92 1002.66 1003.37 1003.76 1004.10 1004.48 1004.73 1004.76 1004.86 1004.97 1005.12 1005.26 1005.83 1006.15 1006.47 1007.26 1008.28 1009.57 1010.43 1010.86 1011.23 1012.35 1013.50 1014.16 1014.94 1016.28 1016.37
1003.13 1002.70 1002.18 1001.55 1001.35 1000.46 1000.35 1000.12 999.96 1000.19 1000.20 1000.37 1000.47 1000.71 1000.94 1001.28 1001.83 1002.56 1003.24 1003.80 1004.09 1004.42 1004.74 1004.88 1004.91 1005.25 1005.47 1005.87 1006.31 1006.59 1006.87 1007.28 1008.31 1009.42 1010.58 1012.09 1013.12 1013.25 1013.87 1015.05 1015.52 1016.27 1016.78
1003.10 1002.62 1001.95 1001.16 1000.58 1000.27 999.41 999.11 999.18 999.25 999.29 999.44 999.55 999.84 1000.50 1000.94 1001.52 1002.22 1002.94 1003.50 1003.74 1003.98 1004.12 1004.61 1004.85 1005.04 1005.64 1005.87 1006.45 1007.17 1007.51 1007.68 1008.94 1009.43 1010.35 1012.00 1013.40 1014.63 1014.89 1015.88 1016.34 1016.37 1016.99
1003.10 1002.79 1002.16 1001.34 1000.52 999.90 999.37 998.59 998.35 998.39 998.50 998.56 998.76 999.11 999.47 1000.24 1001.06 1001.62 1002.27 1002.80 1003.02 1003.06 1003.41 1003.70 1004.03 1004.56 1005.06 1005.58 1005.92 1006.68 1007.75 1008.18 1008.73 1010.18 1011.18 1012.30 1013.65 1014.71 1015.31 1015.96 1016.44 1017.06 1017.04
1003.69 1003.20 1002.67 1001.78 1000.71 1000.20 999.70 999.20 999.18 998.43 997.86 997.90 998.17 998.59 999.05 999.54 1000.23 1001.05 1001.74 1002.01 1002.33 1002.56 1002.75 1003.06 1003.23 1003.96 1004.50 1005.38 1006.20 1006.48 1007.52 1008.51 1009.58 1010.30 1010.62 1011.30 1011.90 1012.83 1014.26 1015.42 1015.77 1015.81 1017.28
Wind_Speed
21 16 13 15 11 16 14 23 21 18 14 12 13 11 12 10 9 10 11 12 14 15 14 9 10 7 9 7 7 6 6 6 4 2 2 2 5 5 5 5 6 6 6
15 18 18 15 12 13 15 21 21 20 16 12 11 10 10 10 10 9 10 12 14 15 14 14 11 12 9 10 8 10 5 4 5 4 3 3 4 5 7 5 4 6 5
13 9 11 11 13 9 4 16 21 22 19 17 9 10 7 8 9 12 11 11 13 15 16 16 14 11 11 11 11 10 12 8 4 7 5 3 5 4 1 3 1 5 2
11 13 10 6 9 8 9 5 16 19 18 19 16 15 13 13 12 11 10 12 15 15 16 15 16 13 11 13 12 10 10 7 8 3 7 2 2 3 1 0 3 5 4
13 15 14 8 13 10 8 9 7 7 16 19 17 14 14 12 10 9 12 15 13 17 17 17 16 16 10 14 13 14 12 11 9 9 4 5 3 3 3 4 3 1 2
20 17 14 8 5 5 9 7 11 12 11 10 20 18 15 14 10 10 10 11 11 13 17 18 17 16 15 13 14 14 15 13 11 9 9 7 6 6 4 2 4 5 4
18 13 10 1 5 7 5 6 12 13 12 10 9 17 17 14 14 8 8 12 11 11 17 18 17 15 17 14 13 13 15 15 13 12 11 8 9 4 4 4 3 3 2
9 9 7 5 7 10 11 9 8 4 7 7 9 8 11 10 10 13 9 8 9 11 13 16 16 17 16 16 13 12 11 13 12 15 12 8 6 5 4 4 5 3 4
7 13 12 11 10 8 9 9 10 9 7 5 6 10 10 8 12 11 9 10 6 8 8 13 17 16 17 16 16 11 14 12 13 12 11 7 5 5 5 4 4 6 5
10 10 8 8 7 8 8 9 9 8 8 8 6 4 8 8 7 7 8 7 8 8 11 13 15 16 15 15 16 13 12 13 11 8 10 8 5 5 4 4 4 4 4
8 7 6 6 7 7 8 8 7 8 8 8 7 6 5 4 7 8 8 8 8 9 8 11 12 14 14 15 15 15 14 14 10 10 11 9 10 6 5 4 3 4 4
6 5 6 5 6 4 4 6 6 6 8 9 8 7 6 4 5 4 7 7 7 6 7 8 11 11 11 11 14 11 11 14 13 12 12 11 10 10 7 4 4 5 4
10 7 6 4 5 5 5 6 6 6 7 7 9 9 6 5 6 6 6 7 7 7 7 9 11 12 12 7 9 12 13 12 13 13 13 13 11 8 7 7 6 5 4
7 7 7 4 3 3 2 3 6 6 6 6 7 8 8 7 7 10 7 6 6 7 8 9 9 9 8 8 8 9 11 11 9 10 10 11 13 14 12 8 7 6 5
10 6 7 8 8 6 4 3 3 5 6 6 6 6 7 6 6 8 10 6 4 5 6 7 6 8 9 8 10 10 12 12 10 8 9 8 8 12 11 9 7 6 5
10 8 10 9 7 5 5 6 4 5 3 5 6 6 4 6 4 5 7 8 6 5 4 6 7 8 6 14 16 16 12 12 14 12 10 7 13 14 16 17 14 5 7
10 11 10 9 7 6 7 5 7 7 6 6 6 6 4 4 2 2 4 6 5 5 6 5 7 9 6 15 17 16 13 14 14 13 13 10 8 12 12 15 16 14 13
15 14 14 9 8 6 6 7 10 10 9 7 7 7 6 3 3 3 3 4 3 4 3 2 4 3 5 17 19 16 13 11 12 13 13 13 13 11 12 11 9 8 6
14 12 12 14 13 8 8 9 12 12 11 11 7 9 5 4 4 4 4 3 2 2 3 3 5 6 4 11 16 10 10 9 9 11 12 13 12 16 16 11 10 9 5
12 12 13 14 15 14 11 11 12 12 15 12 9 9 7 4 3 5 3 3 3 4 3 2 5 7 7 11 14 14 10 12 10 8 10 13 13 15 13 10 11 10 6
17 16 15 14 14 14 15 15 14 15 13 12 10 9 8 6 3 6 4 4 3 3 4 4 4 5 9 11 14 14 11 11 10 10 8 8 17 17 14 12 9 6 9
19 19 17 15 14 14 14 17 17 17 10 12 10 10 8 4 4 6 4 4 5 4 4 4 3 2 5 11 11 11 11 12 10 7 6 10 21 18 16 10 17 14 9
18 18 17 15 19 15 14 16 16 14 14 10 10 7 6 2 5 5 5 3 5 5 4 4 5 4 4 6 10 13 16 17 12 11 16 19 14 16 13 14 15 8 5
18 18 19 18 14 18 16 13 12 11 10 12 11 6 5 5 4 4 4 4 6 6 6 6 5 6 6 7 7 9 10 17 15 20 16 13 11 9 8 7 4 4 3
16 17 18 18 18 17 18 14 11 9 11 12 10 8 5 8 6 6 6 6 7 9 8 8 8 10 9 9 12 12 9 11 15 16 13 12 9 8 6 5 5 3 3
17 17 20 20 19 17 16 14 15 12 9 8 6 6 6 7 7 6 3 4 6 10 9 8 10 5 10 17 18 21 23 26 23 13 13 12 11 11 10 7 6 6 5
Wind_Direction
218 235 214 200 212 199 179 169 170 172 176 190 187 193 201 192 201 204 189 188 188 190 195 212 201 197 193 193 186 189 199 202 177 130 279 236 206 206 209 216 210 187 179
241 219 221 199 192 197 199 169 170 172 177 191 193 199 193 202 197 205 201 191 183 191 194 201 209 205 192 193 192 192 194 205 172 158 155 217 232 217 215 210 200 167 123
265 256 214 200 181 181 99 180 174 174 178 183 195 190 206 196 201 202 206 197 189 189 199 202 206 202 199 201 199 190 194 200 188 173 169 205 217 145 146 141 82 125 133
273 283 281 199 176 166 142 199 185 179 181 182 188 199 200 204 202 203 197 200 194 197 197 207 207 213 198 204 200 199 194 183 192 175 215 235 137 160 155 182 197 155 183
250 268 271 270 167 169 174 169 195 184 188 189 198 192 212 211 204 197 197 194 198 200 201 202 207 211 209 205 198 198 196 201 185 198 161 208 179 209 183 173 223 186 202
207 223 248 259 328 152 184 182 181 198 199 195 201 203 203 212 206 202 201 194 197 197 203 204 207 207 215 203 205 197 200 199 193 190 193 195 182 192 172 193 141 167 211
196 203 219 267 18 337 333 178 199 209 204 209 209 207 209 209 219 215 208 200 197 195 203 204 204 208 208 213 199 204 200 199 195 193 194 195 197 160 169 145 165 150 140
64 61 57 38 12 18 7 13 6 291 187 196 212 212 207 209 214 218 225 226 207 203 195 202 206 207 208 211 207 206 201 199 201 199 192 184 178 147 152 156 147 154 207
60 50 51 43 26 6 355 11 356 345 327 282 232 208 205 208 212 222 208 227 209 204 197 194 205 208 208 208 210 208 208 199 196 202 196 162 148 140 154 155 157 145 173
59 54 47 57 45 25 4 4 344 323 309 311 326 300 192 206 210 189 210 209 219 207 199 200 201 208 207 210 209 209 204 197 197 188 155 147 140 131 134 154 141 119 134
70 69 50 34 43 25 8 352 351 334 327 324 313 307 322 255 189 197 213 209 210 212 203 191 194 201 208 211 209 208 205 197 173 161 156 142 138 138 144 147 145 128 127
36 40 77 57 46 41 25 345 344 358 348 337 331 324 336 326 323 238 203 203 205 214 207 174 192 202 206 209 209 178 169 166 167 160 158 160 145 141 148 140 134 135 134
355 357 25 49 54 20 13 357 334 3 348 345 338 334 320 292 296 287 284 215 195 204 178 176 193 203 209 184 192 176 169 171 163 164 172 157 148 151 152 150 141 149 138
277 303 323 341 32 356 346 21 327 3 341 345 336 339 344 353 340 342 297 278 207 198 178 196 192 195 194 174 172 161 165 158 159 162 173 173 164 157 154 154 149 143 139
283 276 279 299 304 308 337 313 340 335 314 338 327 338 331 333 356 346 338 336 318 191 183 177 181 166 171 158 154 163 159 151 141 158 159 177 168 142 151 145 150 144 139
290 277 263 269 296 311 317 313 327 285 317 305 306 305 333 338 11 355 336 336 316 268 217 193 176 174 175 159 155 153 152 149 149 154 145 135 111 100 95 91 79 122 148
298 285 289 291 291 300 295 317 328 324 306 296 294 287 279 278 281 318 318 311 298 327 300 222 173 187 163 165 158 154 156 157 163 161 152 147 136 124 115 102 93 77 72
357 351 345 314 314 310 340 333 313 305 300 289 292 277 273 256 224 236 258 287 287 266 257 269 329 153 163 166 161 154 148 151 155 155 157 148 154 140 133 125 116 116 122
323 320 318 318 323 312 315 310 302 301 289 286 286 296 279 289 168 220 232 236 256 252 217 200 159 148 162 167 153 144 138 138 141 151 157 149 139 143 137 134 128 108 91
292 287 286 287 288 290 280 273 276 282 284 287 281 279 289 280 287 202 206 215 209 227 202 191 169 159 152 162 152 147 142 143 141 134 141 140 139 133 139 132 130 133 142
296 287 271 267 266 261 267 268 269 263 268 274 275 272 264 259 265 145 164 173 192 183 173 158 158 163 166 167 160 165 156 152 154 150 144 135 123 109 103 125 122 142 143
298 297 295 281 264 257 257 257 254 265 266 266 269 262 261 248 129 141 166 170 164 174 176 142 107 124 170 170 167 167 149 146 142 128 108 122 120 103 99 97 122 131 125
305 299 290 292 300 261 253 253 254 252 254 251 250 241 238 204 108 151 159 160 176 176 185 181 161 152 149 159 165 150 140 133 123 118 116 104 84 97 98 118 125 120 123
290 292 298 294 278 288 267 254 259 256 245 250 254 229 206 203 153 142 161 187 188 190 183 187 176 156 161 165 156 151 128 115 106 120 113 113 101 94 102 100 89 97 127
307 310 307 300 299 298 290 275 253 238 243 247 242 238 208 187 175 183 183 198 210 196 191 198 179 167 173 181 160 149 138 134 128 123 125 124 130 130 122 128 116 93 83
299 297 297 298 299 307 305 300 306 316 294 256 251 234 203 181 174 180 189 224 208 208 209 190 176 167 148 147 147 137 134 133 140 138 142 145 147 144 147 148 153 144 157